Probability
0 0 0 0 0 0 0 0 0 0 0 0 0 0 0 0 0 0 0 0 0 0 0 0 0 0 0 0 0 0 0 0 0 0 0 0 0 0 0 0 0 0 0 0
0 0 0 0 0 0 0 0 0 0 0 0 0 0 0 0 0 0 0 0 0 0 0 0 0 0 0 0 0 0 0 0 0 0 0 0 0 0 0 0 0 0 0 0
0 0 0 0 0 0 0 0 0 0 0 3 3 0 0 0 0 0 0 0 0 0 0 0 0 0 0 0 0 0 0 0 0 0 0 0 0 0 0 0 0 0 0 0
0 0 0 0 0 0 0 0 0 0 3 3 3 0 0 0 0 0 0 0 0 0 0 0 0 0 0 0 0 0 0 0 0 0 0 0 0 0 0 0 0 0 0 0
0 0 0 0 0 0 0 0 0 0 3 0 0 0 0 0 0 0 0 0 0 0 0 0 0 0 0 0 0 0 0 0 0 0 0 0 0 0 0 0 0 0 0 0
0 0 0 0 0 0 0 0 0 0 0 0 0 0 0 0 0 0 0 0 0 0 0 0 0 0 0 0 0 0 0 0 0 0 0 0 0 0 0 0 0 0 0 0
0 0 0 0 0 0 0 0 0 0 0 0 0 0 0 0 0 0 0 0 0 0 0 0 0 0 0 0 0 0 0 0 0 0 0 0 0 0 0 0 0 0 0 0
0 0 0 0 0 0 0 0 0 0 0 0 0 0 0 0 0 0 0 0 0 0 0 0 0 0 0 0 0 0 0 0 0 0 0 0 0 0 0 0 0 0 0 0
0 0 0 0 0 0 0 0 0 0 0 0 0 0 0 0 0 0 0 0 0 0 0 0 0 0 0 0 0 0 0 0 0 0 0 0 0 0 0 0 0 0 0 0
3 3 0 0 0 0 0 0 0 0 0 0 0 0 0 0 0 0 0 0 0 0 0 0 0 0 0 0 0 0 0 0 0 0 0 0 0 0 0 0 0 0 0 0
0 0 0 0 0 0 0 0 0 0 0 0 0 0 0 0 0 0 0 0 0 0 0 0 0 0 0 0 0 0 0 0 0 0 0 0 0 0 0 0 0 0 0 0
0 0 0 0 0 0 0 0 0 0 0 0 0 0 0 0 0 0 0 0 0 0 0 0 0 0 0 0 0 0 0 0 0 0 0 0 0 0 0 0 0 0 0 0
0 0 0 0 0 0 0 0 0 0 0 0 0 0 0 0 0 0 0 0 0 0 0 0 0 0 0 0 0 0 0 0 0 0 0 0 0 0 0 0 0 0 0 0
0 0 0 0 0 0 0 0 0 0 0 0 0 0 0 0 0 0 0 0 0 0 0 0 0 0 0 0 0 0 0 0 0 0 0 0 0 0 0 0 0 0 0 0
0 0 0 0 0 0 0 0 0 0 0 0 0 0 0 0 0 0 0 0 0 0 0 0 0 0 0 0 0 0 0 0 0 0 0 0 0 0 0 0 0 0 0 0
0 0 0 0 0 0 0 0 0 0 0 0 0 0 0 0 0 0 0 0 0 0 0 0 0 0 0 0 0 0 0 0 0 0 0 0 0 0 0 0 0 0 0 0
0 0 0 0 0 0 0 0 0 0 0 0 0 0 0 0 0 0 0 0 0 0 0 0 0 0 0 0 0 0 0 0 0 0 0 0 0 0 0 0 0 0 0 0
0 0 0 0 0 0 0 0 0 0 0 0 0 0 0 0 0 0 0 0 0 0 0 0 0 0 0 0 0 0 0 0 0 0 0 0 0 0 0 0 0 0 0 0
0 0 0 0 0 0 0 0 0 0 0 0 0 0 0 0 0 0 0 0 0 0 0 0 0 0 0 0 0 0 0 0 0 0 0 0 0 0 0 0 0 0 0 0
0 0 0 0 0 0 0 0 0 0 0 0 0 0 0 0 0 0 0 0 0 0 0 0 0 0 0 0 0 0 0 0 0 0 0 0 0 0 0 0 0 0 0 0
0 0 0 0 0 0 0 0 0 0 0 0 0 0 0 0 0 0 0 0 0 0 0 0 0 0 0 0 0 0 0 0 0 0 0 0 0 0 0 0 0 0 0 0
0 0 0 0 0 0 0 0 0 0 0 0 0 0 0 0 0 0 0 0 0 0 0 0 0 0 0 0 0 0 0 0 0 0 0 0 0 0 0 0 0 0 0 0
0 0 0 0 0 0 0 0 0 0 0 0 0 0 0 0 0 0 0 0 0 0 0 0 0 0 0 0 0 0 0 0 0 0 0 0 0 0 0 0 0 0 0 0
0 0 0 0 0 0 0 0 0 0 0 0 0 0 0 0 0 0 0 0 0 0 0 0 0 0 0 0 0 0 0 0 0 0 0 0 0 0 0 0 0 0 0 0
0 0 0 0 0 0 0 0 0 0 0 0 0 0 0 0 0 0 0 0 0 0 0 0 0 0 0 0 0 0 0 0 0 0 0 0 0 0 0 0 0 0 0 0
0 0 0 0 0 0 0 0 0 0 0 0 0 0 0 0 0 0 0 0 0 0 0 0 0 0 0 0 0 0 0 0 0 0 0 0 0 0 0 0 0 0 0 0
0 0 0 0 0 0 0 0 0 0 0 0 0 0 0 0 0 0 0 0 0 0 0 0 0 0 0 0 0 0 0 0 0 0 0 0 0 0 0 0 0 0 0 0
Height
5773 5773 5773 5773 5772 5772 5771 5769 5768 5767 5764 5762 5760 5757 5755 5752 5749 5746 5743 5741 5738 5735 5733 5730 5728 5726 5724 5723 5723 5722 5722 5722 5722 5722 5722 5723 5723 5724 5724 5725 5726 5726 5727 5728
5770 5769 5769 5769 5768 5768 5767 5765 5764 5762 5760 5758 5755 5753 5750 5747 5744 5741 5738 5735 5732 5730 5727 5725 5723 5721 5719 5718 5717 5717 5716 5716 5716 5716 5716 5717 5717 5717 5718 5718 5719 5720 5720 5721
5766 5765 5765 5765 5765 5764 5763 5762 5760 5758 5757 5753 5751 5749 5746 5743 5739 5736 5733 5730 5727 5724 5722 5720 5718 5716 5714 5713 5712 5712 5711 5711 5711 5711 5711 5711 5711 5712 5712 5713 5713 5714 5714 5715
5762 5762 5762 5764 5761 5760 5759 5758 5756 5755 5753 5750 5747 5744 5741 5738 5734 5731 5728 5725 5722 5719 5717 5715 5713 5711 5709 5708 5707 5707 5707 5707 5706 5706 5706 5707 5707 5707 5707 5708 5708 5709 5709 5709
5758 5758 5758 5759 5758 5757 5756 5754 5753 5751 5749 5746 5743 5740 5736 5733 5729 5726 5723 5720 5718 5715 5712 5710 5708 5706 5705 5704 5703 5703 5703 5703 5703 5702 5702 5702 5702 5702 5702 5703 5703 5704 5704 5704
5754 5754 5754 5756 5755 5753 5753 5751 5750 5747 5744 5742 5739 5736 5733 5729 5725 5722 5719 5716 5714 5711 5708 5706 5704 5702 5701 5700 5700 5699 5699 5699 5699 5699 5699 5699 5699 5698 5698 5699 5699 5699 5700 5700
5750 5751 5752 5752 5751 5751 5750 5749 5746 5743 5740 5738 5735 5733 5729 5725 5721 5718 5715 5713 5710 5707 5705 5703 5701 5700 5698 5697 5696 5696 5696 5696 5696 5695 5695 5695 5695 5695 5695 5695 5696 5696 5696 5696
5747 5747 5750 5748 5748 5747 5747 5744 5742 5739 5737 5734 5732 5728 5725 5721 5718 5715 5712 5709 5707 5705 5702 5701 5699 5698 5696 5695 5694 5694 5693 5693 5693 5693 5693 5692 5693 5693 5693 5693 5693 5693 5693 5693
5745 5746 5746 5745 5745 5744 5743 5741 5739 5737 5734 5731 5728 5725 5721 5718 5715 5712 5709 5707 5705 5702 5700 5699 5697 5696 5695 5694 5693 5692 5692 5692 5691 5691 5691 5691 5690 5690 5690 5690 5690 5690 5690 5690
5741 5742 5742 5742 5741 5741 5740 5738 5736 5734 5732 5729 5726 5722 5719 5716 5713 5710 5707 5705 5703 5701 5699 5697 5696 5695 5694 5693 5692 5691 5691 5690 5690 5690 5689 5689 5689 5689 5689 5689 5688 5688 5688 5688
5738 5738 5739 5739 5738 5738 5737 5736 5734 5732 5729 5727 5724 5721 5718 5714 5711 5709 5706 5704 5702 5700 5699 5697 5696 5695 5694 5693 5692 5691 5690 5690 5689 5689 5689 5689 5689 5689 5688 5688 5688 5687 5687 5687
5736 5737 5737 5738 5736 5736 5735 5733 5732 5730 5727 5725 5723 5720 5717 5714 5711 5708 5706 5704 5702 5700 5699 5698 5696 5695 5694 5693 5692 5692 5691 5690 5690 5690 5689 5689 5689 5689 5688 5688 5688 5687 5687 5686
5733 5734 5735 5735 5735 5734 5733 5731 5730 5728 5726 5724 5722 5719 5717 5714 5711 5709 5707 5705 5703 5701 5700 5698 5697 5696 5695 5695 5694 5693 5692 5692 5691 5691 5690 5690 5690 5689 5689 5689 5688 5687 5687 5686
5731 5733 5733 5733 5733 5732 5731 5730 5729 5727 5725 5723 5721 5719 5717 5715 5712 5710 5708 5706 5704 5703 5701 5700 5699 5698 5697 5696 5696 5695 5694 5694 5693 5692 5692 5692 5691 5691 5690 5690 5689 5688 5688 5687
5729 5731 5732 5732 5732 5731 5730 5729 5728 5726 5725 5723 5721 5720 5718 5716 5714 5712 5710 5708 5706 5705 5704 5703 5702 5701 5700 5699 5698 5698 5697 5696 5696 5695 5694 5694 5694 5693 5692 5692 5691 5690 5689 5688
5727 5729 5730 5731 5731 5730 5730 5729 5728 5726 5725 5724 5722 5721 5719 5718 5716 5714 5713 5711 5710 5708 5707 5706 5705 5704 5703 5702 5701 5701 5700 5699 5699 5698 5698 5697 5696 5696 5695 5694 5693 5692 5691 5690
5726 5728 5730 5730 5730 5730 5730 5729 5728 5727 5726 5725 5724 5723 5722 5720 5719 5718 5716 5714 5713 5711 5710 5709 5708 5707 5706 5705 5705 5704 5704 5703 5703 5702 5701 5700 5699 5699 5698 5697 5696 5695 5693 5692
5725 5727 5728 5730 5730 5730 5730 5730 5729 5729 5728 5727 5726 5725 5724 5723 5722 5721 5719 5718 5717 5715 5714 5713 5712 5711 5710 5709 5709 5708 5707 5707 5706 5706 5705 5704 5703 5702 5701 5700 5699 5698 5696 5695
5724 5726 5727 5729 5730 5730 5731 5731 5731 5731 5730 5730 5729 5728 5727 5726 5725 5724 5723 5722 5720 5719 5718 5717 5716 5715 5714 5713 5713 5712 5712 5711 5710 5710 5709 5708 5707 5706 5705 5704 5702 5701 5700 5698
5723 5725 5727 5728 5730 5731 5732 5732 5732 5733 5732 5732 5731 5731 5730 5729 5728 5727 5726 5726 5724 5723 5722 5721 5720 5719 5718 5718 5717 5717 5716 5715 5714 5714 5713 5712 5710 5709 5708 5707 5706 5704 5703 5702
5722 5724 5726 5728 5730 5731 5733 5734 5734 5735 5735 5734 5734 5733 5733 5732 5732 5731 5730 5729 5729 5728 5727 5725 5725 5724 5723 5722 5722 5721 5720 5720 5719 5718 5717 5715 5714 5713 5712 5711 5709 5708 5706 5705
5721 5723 5726 5729 5730 5732 5734 5735 5736 5736 5737 5737 5736 5736 5736 5736 5735 5734 5734 5733 5732 5732 5731 5730 5729 5729 5728 5727 5726 5726 5725 5724 5723 5721 5720 5719 5718 5717 5715 5714 5713 5711 5710 5708
5720 5723 5726 5729 5731 5733 5735 5736 5737 5738 5739 5739 5739 5739 5739 5739 5738 5738 5737 5737 5736 5736 5735 5734 5733 5733 5732 5731 5730 5730 5729 5728 5727 5725 5724 5723 5722 5720 5719 5717 5716 5714 5713 5711
5718 5722 5725 5728 5731 5733 5735 5736 5738 5739 5740 5741 5741 5741 5742 5742 5741 5741 5741 5740 5740 5739 5738 5738 5737 5736 5736 5735 5734 5733 5732 5731 5730 5729 5727 5726 5725 5723 5722 5720 5719 5717 5715 5713
5716 5720 5724 5727 5730 5733 5735 5737 5739 5740 5741 5742 5743 5744 5744 5744 5744 5744 5744 5743 5743 5742 5742 5741 5740 5740 5739 5738 5737 5736 5735 5734 5733 5732 5730 5729 5727 5726 5724 5723 5721 5719 5718 5716
5714 5718 5722 5726 5729 5732 5735 5737 5739 5741 5742 5744 5745 5745 5746 5746 5746 5746 5746 5746 5746 5745 5745 5744 5743 5743 5742 5741 5740 5739 5738 5737 5736 5734 5733 5731 5730 5728 5727 5725 5723 5721 5720 5718
5711 5715 5720 5724 5727 5731 5733 5736 5738 5741 5742 5744 5745 5746 5747 5747 5748 5748 5748 5748 5748 5747 5747 5746 5746 5745 5744 5743 5742 5741 5740 5739 5737 5736 5735 5733 5732 5730 5728 5726 5725 5723 5721 5719
Wind_Speed
13 13 14 15 16 17 16 16 17 17 17 18 18 19 20 20 20 21 21 21 20 20 20 20 20 19 18 18 18 17 18 18 18 19 19 20 19 20 20 21 21 21 20 21
14 15 15 15 15 15 15 15 17 17 17 18 19 19 20 21 21 21 21 21 20 20 19 19 18 17 16 16 16 16 16 15 16 16 17 18 18 18 19 19 19 19 18 19
14 14 15 15 15 15 15 15 15 16 16 17 18 19 20 20 21 21 21 20 19 18 18 17 16 16 15 15 14 14 14 13 14 14 15 15 15 16 16 16 16 17 17 17
14 14 15 14 13 13 13 14 15 16 17 17 18 18 19 20 20 20 19 19 17 17 16 16 15 14 14 13 13 12 12 11 11 12 12 12 12 13 14 15 15 15 16 16
13 13 13 12 12 12 12 13 14 15 15 16 17 18 18 19 19 18 18 17 16 15 15 14 13 13 12 12 12 11 11 10 11 11 11 11 12 12 13 13 13 13 14 14
13 13 12 10 10 11 12 12 14 15 15 16 17 17 18 18 18 17 15 14 14 14 14 12 11 10 10 10 10 9 9 9 9 10 10 10 11 11 11 12 12 13 12 13
12 12 9 9 9 10 11 12 13 14 15 15 16 17 18 17 16 15 14 13 13 13 12 10 9 8 7 7 7 7 7 7 8 8 8 8 9 10 9 10 10 11 11 12
12 10 8 8 8 9 10 11 12 13 14 14 15 16 16 16 15 14 12 12 12 10 9 8 7 7 6 5 5 5 5 5 6 6 6 6 6 7 7 8 8 8 9 9
11 9 7 7 7 8 9 10 11 11 12 13 14 15 15 14 14 12 11 10 9 8 7 6 5 5 5 4 4 4 3 3 4 4 4 3 4 4 4 5 5 6 6 7
10 7 6 6 7 8 8 9 9 10 11 12 13 13 12 13 12 11 10 8 7 7 6 5 5 4 3 3 3 3 2 3 2 2 2 2 1 1 1 2 3 3 4 5
9 7 6 6 6 6 7 8 9 10 10 11 11 11 11 12 11 10 9 8 7 6 6 6 5 4 4 4 3 3 2 2 2 2 1 1 2 2 2 2 2 2 3 3
8 7 5 4 4 4 6 7 8 8 9 9 9 10 10 11 10 10 9 8 8 7 7 7 6 6 6 5 5 4 4 4 4 4 4 4 4 4 3 3 3 3 3 4
7 6 5 4 3 4 5 6 6 7 7 8 9 9 10 10 10 10 9 9 8 8 8 8 8 8 8 7 7 7 7 6 6 6 6 6 6 6 6 6 6 5 5 5
6 5 4 3 3 3 4 4 6 6 7 7 8 9 10 10 10 10 10 10 10 10 10 10 10 9 9 9 9 9 9 9 9 9 9 9 8 8 8 8 7 7 7 7
7 5 4 2 2 2 3 4 6 7 7 7 8 9 10 10 11 11 11 11 11 11 11 11 12 12 11 11 11 11 11 11 11 11 11 11 11 10 10 9 9 9 9 9
7 5 4 2 1 1 3 5 6 7 7 7 8 9 10 11 12 12 13 13 13 13 13 13 13 13 13 13 13 13 13 13 13 13 13 13 12 12 12 12 11 11 10 10
8 6 5 4 3 3 4 5 6 7 8 8 9 9 10 11 12 13 13 14 14 14 14 14 14 15 15 15 15 15 14 14 14 14 14 14 14 14 14 13 13 12 12 12
9 7 6 5 4 4 4 6 7 8 8 9 9 10 11 12 12 13 13 14 15 15 15 15 15 16 16 16 16 16 15 15 15 15 15 15 15 14 14 14 14 14 13 13
9 9 8 7 7 6 6 6 7 8 8 9 10 10 11 12 12 13 14 15 15 16 16 16 16 16 16 17 17 17 16 16 16 15 15 15 15 15 14 14 14 14 14 14
11 10 10 8 8 7 7 7 7 8 8 9 10 11 11 12 13 13 14 15 16 17 17 17 17 17 17 17 17 17 16 16 17 17 16 16 16 15 15 15 15 14 14 14
12 12 11 9 8 8 8 8 8 8 8 9 10 11 12 12 13 13 14 15 16 16 17 17 18 18 18 18 17 17 17 17 17 17 16 16 16 16 15 15 15 14 14 14
14 13 13 11 10 10 9 9 9 9 9 10 11 11 12 12 13 13 14 15 15 15 16 17 17 17 17 17 17 16 16 16 16 16 16 16 16 16 16 15 15 15 15 15
16 15 14 13 12 11 10 10 10 9 10 10 11 12 12 13 13 14 14 15 15 15 16 16 16 16 16 16 16 16 15 15 15 15 16 15 15 15 15 15 15 15 15 15
18 17 17 16 14 13 12 11 10 10 10 10 11 12 12 13 13 14 14 14 15 15 15 15 16 15 15 15 15 15 14 14 14 14 15 14 14 14 14 14 14 15 15 15
20 19 18 17 15 14 13 12 11 11 10 10 11 11 11 12 12 13 13 13 14 14 14 14 14 14 14 14 14 14 14 14 14 14 14 14 14 13 13 14 14 14 14 14
23 22 20 19 17 16 14 13 12 11 11 10 10 10 10 10 10 11 11 11 12 12 12 12 13 13 13 13 13 13 13 13 13 13 13 13 13 13 13 13 13 13 13 13
26 25 23 21 19 17 15 14 13 12 11 10 9 9 9 8 8 8 8 9 9 10 10 10 11 11 11 11 11 11 11 12 12 12 12 12 12 12 12 12 13 13 13 13
Wind_Direction
267 266 264 268 270 277 284 288 294 298 301 306 309 311 313 314 313 312 311 309 308 304 302 301 299 295 290 282 276 274 272 271 268 263 261 259 258 258 258 259 259 258 258 260
261 264 265 271 272 276 285 292 298 300 304 306 310 311 312 313 313 311 310 308 306 303 302 301 299 293 287 283 276 272 270 270 269 266 262 261 261 260 260 261 260 261 260 260
258 263 267 269 273 278 285 294 300 306 311 311 311 311 312 312 312 312 311 309 307 305 303 301 298 293 287 282 277 271 267 267 267 266 265 263 262 261 260 262 263 264 262 262
256 261 265 274 274 278 285 293 301 307 310 312 313 315 316 315 314 314 311 309 308 306 303 300 298 294 288 280 273 271 270 270 270 268 265 262 259 258 260 260 263 264 263 265
256 263 270 271 274 281 289 294 300 306 311 316 318 318 318 317 316 314 313 312 310 309 307 304 300 295 286 281 275 271 270 268 269 269 266 263 263 262 261 261 262 263 264 263
258 264 269 276 275 283 291 299 307 313 318 321 322 322 322 321 319 318 316 316 316 315 313 308 303 299 290 285 277 269 266 266 270 269 268 266 266 267 267 266 264 262 261 260
256 263 273 279 279 291 300 311 315 318 321 322 323 324 324 323 323 322 320 319 319 318 316 312 309 305 302 296 284 273 268 269 273 274 271 267 267 268 267 264 261 258 260 260
255 260 271 282 287 294 307 313 316 321 324 323 324 327 328 327 326 326 324 324 325 324 321 316 314 313 310 303 293 279 273 276 278 278 279 273 265 261 260 261 262 263 264 265
255 259 264 275 287 296 307 313 318 325 328 328 330 332 332 332 333 333 332 333 335 337 333 331 330 327 321 310 303 297 292 287 287 285 290 282 274 270 266 266 270 271 273 275
248 247 254 269 284 303 310 315 323 329 331 332 335 339 342 341 340 342 343 344 348 351 354 356 358 354 357 354 346 334 323 319 319 322 317 303 286 284 290 297 294 290 287 290
247 249 255 273 283 302 314 320 325 329 334 339 345 351 354 353 354 356 359 3 7 12 21 25 27 28 30 31 25 22 17 8 8 7 10 34 42 34 23 11 356 340 329 324
244 251 265 280 294 311 320 323 331 339 345 350 355 3 6 7 10 12 17 23 27 31 37 42 45 50 51 54 52 48 52 55 59 68 72 68 61 55 52 46 40 34 22 9
238 242 260 269 293 316 330 340 349 354 357 2 7 12 16 19 22 27 33 36 39 42 49 55 58 62 66 66 62 62 64 66 67 70 72 70 68 65 64 61 56 50 40 32
224 235 254 278 298 318 337 358 4 9 12 15 18 21 24 29 33 37 41 46 48 53 59 63 65 67 68 67 66 66 67 70 72 72 72 71 70 68 68 65 59 56 51 46
216 223 233 264 299 323 17 17 18 22 25 28 31 34 38 43 47 49 53 57 59 63 65 67 69 70 71 71 72 73 74 74 75 74 73 71 71 70 68 66 63 60 56 52
209 205 203 209 192 98 57 40 36 40 41 43 46 49 52 56 58 60 62 65 66 67 68 70 71 72 74 76 78 77 75 74 75 75 74 71 69 68 67 65 63 60 57 55
199 190 185 166 141 108 79 58 53 54 55 58 60 62 63 65 66 66 67 67 67 68 71 72 74 76 78 79 79 79 77 76 75 74 73 72 71 70 68 65 63 60 58 57
195 187 179 171 150 125 98 76 69 67 66 67 69 70 71 71 71 70 69 69 70 71 73 76 78 79 79 78 78 78 78 76 75 74 74 73 72 70 68 66 64 62 60 58
189 182 169 160 150 133 114 94 84 80 77 76 77 78 76 75 75 75 75 75 74 75 76 78 79 80 80 79 79 78 78 78 77 75 74 73 71 70 68 66 64 61 59 57
184 177 169 162 148 138 127 113 102 94 88 84 84 84 82 80 79 79 79 79 78 78 79 79 79 80 80 80 79 78 77 77 76 74 72 71 69 68 66 64 62 59 56 54
181 178 175 167 158 148 140 129 117 106 98 95 92 89 86 85 83 83 82 82 81 81 81 81 81 81 80 80 78 77 76 75 74 72 70 69 68 67 65 62 60 57 54 52
182 177 172 168 164 156 149 140 128 117 108 102 98 94 92 90 88 86 85 84 84 84 83 83 83 82 80 79 77 75 73 72 71 70 68 67 66 64 62 60 58 55 53 51
181 179 175 172 166 162 155 147 136 126 117 108 103 100 97 94 92 90 88 87 86 86 85 84 83 81 79 78 76 74 71 69 68 67 66 64 62 61 59 57 55 52 49 47
181 180 177 173 169 165 159 153 144 136 128 119 111 106 103 99 96 94 92 91 89 87 86 84 83 81 79 76 74 72 70 67 64 62 61 60 58 55 53 52 50 48 45 43
183 179 177 175 174 171 167 160 154 147 139 130 122 115 109 104 99 96 94 92 89 87 86 84 82 79 77 74 71 69 67 64 60 57 54 53 52 49 47 44 43 41 39 38
185 183 182 181 180 177 173 168 163 158 152 145 136 128 120 112 106 100 96 93 89 87 84 81 78 75 73 71 68 65 63 61 58 55 51 49 47 44 41 38 34 32 30 29
189 187 186 186 184 182 179 176 172 168 165 160 152 143 134 126 119 111 103 96 92 88 84 80 77 73 70 66 63 60 57 54 52 48 45 42 40 38 35 33 30 27 24 22